Lid_Strength_Index
10 13 14 13 13 14 13 15 16 16 14 15 14 13 11 10 12 12 11 11 11 11 9 8 8 8 8 8 8 7 7 7 6 6 6 6 6 4 3 3 3 1 2 2
11 14 12 10 11 13 14 15 16 15 13 14 15 15 13 12 11 10 10 11 11 11 10 10 9 9 9 9 8 8 8 8 7 7 6 5 5 3 4 6 7 7 6 5
13 14 10 10 12 14 16 17 17 16 15 15 16 17 15 13 13 12 11 10 10 10 10 10 10 9 10 10 9 9 9 9 8 7 6 5 4 5 5 7 10 10 9 9
12 12 10 12 13 12 16 14 15 15 17 20 17 23 18 16 15 14 13 12 10 10 12 11 10 10 10 10 10 10 10 10 9 8 6 5 5 6 7 9 11 11 11 11
13 12 12 13 12 10 14 12 13 14 17 18 20 20 19 18 17 15 14 13 12 12 12 11 10 9 10 11 11 11 11 11 10 9 7 5 7 8 9 10 11 11 11 11
13 11 10 10 10 9 10 12 13 14 16 22 19 19 21 18 16 15 13 13 12 12 12 11 10 10 11 12 12 12 11 11 11 10 9 8 9 10 10 11 11 12 13 12
12 12 11 8 11 10 11 14 21 22 22 23 19 19 18 16 14 14 13 13 13 10 11 11 11 11 12 12 12 12 12 12 12 12 11 10 10 10 10 11 12 12 13 13
16 17 11 9 11 13 12 13 17 21 21 21 17 20 18 14 13 12 12 11 11 11 11 11 11 11 12 12 13 12 12 12 12 12 13 12 12 12 12 13 13 13 13 13
15 15 10 9 9 9 13 15 12 16 22 21 18 18 16 14 14 13 13 12 12 12 11 11 11 11 12 12 12 12 12 12 12 13 13 13 13 13 14 14 14 14 14 13
12 16 12 10 9 10 11 10 16 18 24 25 19 19 19 16 15 13 13 12 11 11 11 12 12 11 11 12 12 12 12 12 13 13 14 13 14 14 14 14 14 14 14 13
11 13 14 11 13 13 13 14 13 13 17 22 24 20 16 15 14 14 13 12 11 11 11 11 12 12 12 13 13 13 13 13 13 13 14 14 14 14 14 14 14 14 14 14
10 13 16 14 12 11 10 12 12 16 19 18 18 18 14 14 14 14 13 12 13 11 11 11 12 12 13 13 14 14 14 14 14 14 14 14 14 15 15 15 15 15 15 15
10 14 17 16 14 13 14 12 11 12 14 16 19 18 13 13 13 12 13 12 12 11 11 11 12 12 12 13 14 14 14 15 14 14 15 15 15 16 16 16 16 16 16 15
9 12 15 17 16 13 15 13 12 13 16 16 15 15 14 14 14 13 13 13 12 11 11 11 12 12 12 12 13 14 15 15 15 15 15 16 16 16 16 16 16 16 15 15
10 14 14 13 14 14 13 13 12 14 13 16 14 14 12 11 11 12 11 12 10 10 10 11 11 11 12 12 13 13 14 14 14 15 15 15 15 16 16 15 15 15 15 15
10 14 13 15 12 13 13 13 12 12 12 12 12 13 9 9 11 12 11 10 10 10 9 10 10 10 11 11 12 12 12 13 14 14 14 14 14 15 14 14 14 14 14 14
12 14 15 18 14 13 16 13 12 12 11 11 14 11 8 9 10 10 9 9 9 8 9 9 10 10 10 11 10 11 11 13 13 13 14 14 14 14 14 15 15 15 15 15
15 15 14 20 16 20 14 11 10 11 10 10 9 9 9 9 8 9 9 8 8 9 8 8 9 9 9 9 10 11 12 13 13 14 14 14 14 15 15 15 15 15 15 15
11 13 19 21 20 16 15 13 12 13 12 9 10 9 8 7 10 9 8 7 7 6 7 7 8 8 9 10 10 12 14 14 14 14 14 14 14 14 15 15 15 16 15 15
11 11 14 24 22 25 15 13 12 10 15 9 8 9 9 10 12 9 6 8 8 8 8 9 11 11 11 11 12 13 14 15 15 15 15 14 14 15 15 15 16 15 15 14
15 14 16 17 17 18 13 12 10 16 14 12 10 9 9 10 8 6 10 10 10 10 10 13 13 13 13 14 14 14 15 15 15 15 15 15 14 14 14 15 15 15 15 14
16 20 19 18 17 20 12 13 12 10 10 11 11 10 10 10 10 10 10 11 11 11 13 14 14 15 16 15 15 15 16 16 16 16 16 16 16 15 15 15 15 15 15 15
17 13 16 15 15 11 11 10 9 10 11 10 10 9 10 11 12 11 11 12 12 12 13 15 15 16 17 16 16 16 17 17 17 17 18 18 17 15 15 15 16 16 15 15
13 11 12 13 12 11 11 10 10 8 9 7 8 10 11 11 11 12 12 12 13 14 15 18 18 18 18 19 17 17 18 18 18 19 19 18 18 18 16 16 16 16 16 16
12 12 15 14 11 10 10 9 9 9 9 10 10 11 10 11 11 12 12 13 14 15 18 19 18 18 19 20 21 20 19 19 19 19 19 18 18 18 18 17 17 16 16 15
13 13 15 14 10 11 9 9 9 10 11 9 11 11 12 12 12 12 14 14 15 16 19 19 19 20 21 22 22 22 20 19 19 20 19 19 19 19 18 18 19 14 15 13